Forside
METAR-TAF:

METAR-TAF

Lufthavne :

Huron County Memorial Airport

Bad Axe, Michigan, USA

Breddekreds: 43-46-51N, længdekreds: 082-59-08W, højde: 233 m

Aktuelle vejr

Denne rapport blev lavet for 11 minutter siden, kl. 01:36 UTC
Vind 4 kt fra vestsydvest
Temperatur 23°C
Fugtighed 57%
Tryk 1012 hPa
Sigt: 16.1 km
skyfri

METAR: KBAX 250136Z AUTO 25004KT 10SM CLR 23/14 A2989 RMK AO2 T02280143

Tid: 21:47 (01:47 UTC)


TAF: fraværende

Vejrobservationer og prognoser fra mere end 4000 lufthavne (METAR og TAF).

De gule og røde prikker repræsenterer de meteorologiske stationer.

Flyt musen over at se navnet på stationen.

Så klik over at se vejr observationer og prognoser.

At skifte det kort: Klik på de grønne knapper med et sort kors for at zoome ind; på den grønne knap med en bindestreg for at zoome ud; eller på de grønne pile for tilstødende kort.


METAR-TAF: